Location: �perlecques
(50.8057°N, 2.1521°E)
Time: 01:36:24
(UTC+00:00)

VELOX 1 - Pass Details

Date: 26 September 2021
Orbit: 627 x 642 km, 98.3° (Epoch: 21 October)

Event Time Altitude Azimuth Distance (km) Brightness Sun altitude
Exits shadow 04:43:00 14° 260° (W) 1,744 ? -10.4°
Maximum altitude 04:43:43 15° 271° (W) 1,719 ? -10.3°
Drops below altitude 10° 04:46:12 10° 306° (NW) 2,017 ? -9.9°
Sets 04:49:20 0° 330° (NNW) 2,929 ? -9.4°
